Regional Weather Roundup
Issued by NWS Charleston, SC

Current Version | Previous Version | Text Only | Print | Product List | Glossary Off
Versions: 1 2 3 4 5 6 7 8 9 10 11 12 13 14 15 16 17 18 19 20 21 22 23 24 25 26 27 28 29 30 31 32 33 34 35 36 37 38 39 40 41 42 43 44 45 46 47 48 49 50
000 ASUS42 KCHS 221826 RWRCHS REGIONAL WEATHER ROUNDUP NATIONAL WEATHER SERVICE CHARLESTON SC 100 PM EST WED FEB 22 2017 NOTE: "FAIR" INDICATES FEW OR NO CLOUDS BELOW 12,000 FEET WITH NO SIGNIFICANT WEATHER AND/OR OBSTRUCTIONS TO VISIBILITY. NOT ALL STATIONS ARE QUALITY CONTROLLED. USE DATA WITH CAUTION... ESPECIALLY DEWPOINT OBSERVATIONS. SCZ027-030-031-034>040-042>050-221900- ...SOUTHEAST SOUTH CAROLINA... CITY SKY/WX TMP DP RH WIND PRES REMARKS N CHARLESTON PTSUNNY 73 55 53 SE18 29.92F 6HR MIN TEMP: 62; 6HR MAX TEMP: 76; WATERFRONT PRK N/A 66 60 81 E12 29.91F MOUNT PLEASANT FAIR 70 63 78 E6G17 29.92F JOHNS ISLAND FAIR 70 61 73 E10 29.91F PINOPOLIS N/A 72 55 56 E8 29.86S MONCKS CORNER MOCLDY 73 54 49 SE10 29.91F SUMMERVILLE FAIR 73 52 46 E9 29.92F BEAUFORT MCAS CLOUDY 71 61 70 E16G23 29.89F 6HR MIN TEMP: 63; 6HR MAX TEMP: 71; 6HR PCP: TRACE; BEAUFORT ARPT MOCLDY 72 61 68 E16G23 29.87F HILTON HEAD IS PTSUNNY 68 63 83 E9 29.88F WALTERBORO CLOUDY 72 55 56 SE14G21 29.91F ALLENDALE CLOUDY 70 59 68 E8G16 29.88F ...SOUTHERN MIDLANDS AND PEE DEE... CITY SKY/WX TMP DP RH WIND PRES REMARKS GEORGETOWN FAIR 70 55 60 SE14 29.95F KINGSTREE MOCLDY 72 50 46 E10G17 29.92F ORANGEBURG CLOUDY 71 57 61 E3 29.92F 6HR MIN TEMP: 54; 6HR MAX TEMP: 71; BARNWELL MOCLDY 73 59 60 E13 29.90F AIKEN CLOUDY 70 55 60 E10 29.94F MANNING CLOUDY N/A N/A N/A MISG 29.92F COLUMBIA CLOUDY 74 55 51 E14 29.92F 6HR MIN TEMP: 58; 6HR MAX TEMP: 74; SUMTER CLOUDY 73 54 50 SE7 29.91F 6HR MIN TEMP: 54; 6HR MAX TEMP: 75; 6HR PCP: TRACE; FLORENCE PTSUNNY 75 52 44 S14G20 29.93F 6HR MIN TEMP: 51; 6HR MAX TEMP: 76; MYRTLE BEACH SUNNY 72 55 56 E12 29.96F N MYRTLE BEACH SUNNY 70 55 59 SE9 29.95F 6HR MIN TEMP: 60; 6HR MAX TEMP: 70; $$ GAZ063-065-086>088-099>101-113>116-118-119-134>141-150-221900- ...SOUTHEAST GEORGIA... CITY SKY/WX TMP DP RH WIND PRES REMARKS SAVANNAH ARPT LGT RAIN 64 60 87 NE9 29.86F 6HR MIN TEMP: 63; 6HR MAX TEMP: 69; 6HR PCP: 0.31; HUNTER AAF CLOUDY 65 65 100 CALM 29.84F 6HR MIN TEMP: 63; 6HR MAX TEMP: 67; 6HR PCP: 0.26; FORT STEWART HVY RAIN 64 63 94 CALM 29.82F FOG 6HR MIN TEMP: 62; 6HR MAX TEMP: 66; 6HR PCP: 0.18; STATESBORO RAIN 66 66 100 E3 29.87F SYLVANIA LGT RAIN N/A N/A N/A SE5 29.89F CLAXTON RAIN N/A N/A N/A E3 29.87F ...CSRA...CENTRAL AND FAR SOUTHEAST GEORGIA... CITY SKY/WX TMP DP RH WIND PRES REMARKS THOMSON CLOUDY 73 61 65 SE7 29.93F AUGUSTA-BUSH CLOUDY 75 58 55 SE10 29.89F 6HR MIN TEMP: 57; 6HR MAX TEMP: 75; AUGUSTA-DANIEL MOSUNNY 72 56 57 E10 29.91F SWAINSBORO RAIN 64 63 94 E6 29.88F VIDALIA DRIZZLE 64 64 100 E12 29.86F EASTMAN CLOUDY 71 56 58 E9 29.86F HAZLEHURST CLOUDY 69 63 82 E10 29.83F ALMA CLOUDY 69 61 75 E8G16 29.83S 6HR MIN TEMP: 64; 6HR MAX TEMP: 70; WAYCROSS PTSUNNY 72 67 83 E10 29.80F JESUP DRIZZLE 64 63 94 NE5 29.83F BAXLEY CLOUDY 68 66 94 E9 29.83F BRUNSWICK CLOUDY 66 66 100 NE7 29.82F SAINT SIMONS CLOUDY 66 64 93 NE7 29.81F 6HR MIN TEMP: 64; 6HR MAX TEMP: 67; 6HR PCP: 0.44; $$ SCZ027-028-034-036>038-045-046-048>050-GAZ119-141-221900- ...LAKE AND SUPPLEMENTAL COASTAL OBSERVATIONS... STATION/POSITION TIME TEMP WIND PRES WAVE SWELL AIR SEA DIR/SP/G HT/PER HT/PER/DIR (UTC) (F) (DEG/KT/KT) (MB) (FT/S) (FT/S/D) WINYAH BAY 1745 67 100/ 9 1014.0S LAKE MURRAY 1750 67 90/ 7/ 9 1013.2F ACE BASIN NERRS 1745 71 100/ 6 1012.0F FORT PULASKI 1800 64 61 70/ 12/ 15 1011.2 SAPELO ISLAND 1800 64 300/ 2 1010.0 $$ ANZ835-935-AMZ111-154-330-350-352-354-370-450-454-472-221900- ...C-MAN AND BUOY OBSERVATIONS... STATION/POSITION TIME TEMP WIND PRES WAVE SWELL AIR SEA DIR/SP/G HT/PER HT/PER/DIR (UTC) (F) (DEG/KT/KT) (MB) (FT/S) (FT/S/D) BUOY 41004 1750 68 70 90/ 21/ 23 1012.3F 5/ 6 2/ 70/ 8 BUOY 41008 1750 66 62 120/ 10/ 12 1009.8F 6/ 7 5/130/ 7 FOLLY BEACH CMAN 1800 64 90/ 10/ 11 1013.5F CAPERS NEARSHORE 1708 63 59 80/ 8/ 12 1013.6F FRIPP NEARSHORE 1808 64 61 90/ 12/ 16 1011.6F STATION/POSITION TIME TEMP WIND PRES WAVE SWELL AIR SEA DIR/SP/G HT/PER HT/PER/DIR (UTC) (F) (DEG/KT/KT) (MB) (FT/S) (FT/S/D) 5E ST. MARYS GA 1700 63 N/A 4/ 7 FRYING PAN BUOY 1810 68 68 130/ 16/ 19 1014.1 BUOY 41025 1750 67 75 140/ 10/ 12 1015.8F 3/ 8 3/ 70/ 8 CAPE LOOKOUT NC 1800 65 140/ 7/ 7 1015.0F BUOY 41002 1750 65 70 100/ 14/ 19 1016.0F 5/ 9 3/ 30/ 9 BUOY 41010 NOT AVBL ST AUGUSTINE FL 1800 69 68 180/ 10/ 15 1008.7F $$

USA.gov is the U.S. government's official web portal to all federal, state and local government web resources and services.